Simultaneous Nadir Overpasses (SNOs) Predictions

Prediction of SNOs between AQUA and METOP-B Satellite Orbit:

Table of predicted SNOs for the next 14.0 days since TLE Epoch: 6/12/2016
Index Date (AQUA) Time (AQUA) Lat,Lon (AQUA) SZA (AQUA ) Date (METOP-B) Time (METOP-B) Lat,Lon (METOP-B) SZA (METOP-B ) Distance(km) Time Diff (sec)
1 06/15/2016 10:34:06 -73.63,-163.87 129.70 06/15/2016 10:32:54 -73.55,-164.56 129.76 23.66 72
2 06/15/2016 11:23:37 73.80, 3.40 50.48 06/15/2016 11:23:29 73.80, 3.38 50.48 0.86 8
3 06/15/2016 12:13:04 -73.89, 170.85 129.43 06/15/2016 12:14:09 -73.87, 170.88 129.46 2.11 65
4 06/18/2016 06:08:22 -73.76, -97.70 129.64 06/18/2016 06:07:13 -73.74, -97.68 129.65 1.92 69
5 06/18/2016 06:57:51 73.83, 69.78 50.43 06/18/2016 06:57:52 73.80, 69.79 50.41 3.11 1
6 06/18/2016 07:47:18 -73.91,-122.76 129.48 06/18/2016 07:48:31 -73.92,-122.59 129.49 5.51 73
7 06/21/2016 01:42:35 -73.74, -31.22 129.68 06/21/2016 01:41:36 -73.74, -31.26 129.67 1.33 59
8 06/21/2016 02:32:04 73.81, 136.26 50.40 06/21/2016 02:32:15 73.80, 136.19 50.38 2.80 11
9 06/21/2016 03:21:38 -74.26, -57.11 129.13 06/21/2016 03:22:47 -74.26, -55.32 129.19 53.83 69
10 06/23/2016 21:16:47 -73.73, 35.24 129.65 06/23/2016 21:15:58 -73.74, 35.14 129.64 3.12 49
11 06/23/2016 22:06:16 73.81,-157.29 50.43 06/23/2016 22:06:36 73.84,-157.29 50.46 3.28 20
12 06/26/2016 16:51:01 -73.79, 101.56 129.51 06/26/2016 16:50:20 -73.78, 101.66 129.51 2.96 41
13 06/26/2016 17:40:29 73.82, -90.86 50.53 06/26/2016 17:40:59 73.83, -90.89 50.54 1.91 30




NCC Satellite Simultaneous Nadir Overpasses (SNOs) Prediction Service
